Dewpoint
46 41 36 32 21 6 -1 -3 -5 -1 3 10 23 25 25 25 32 41 57 55 55 62 64 67 70 70 70 70 69 69 69 69 68 68 68 68 68 68 69 69 69 69 68 68 67 67 66 67 67
38 31 32 28 15 4 -3 -4 -3 -1 34 45 40 33 33 34 57 60 59 58 59 62 64 65 70 70 70 70 69 69 69 69 69 68 68 68 68 68 68 69 69 68 68 67 67 67 67 66 66
42 31 26 22 16 7 -1 9 5 22 37 41 43 45 35 42 58 60 62 60 60 62 63 66 69 70 70 69 68 68 69 68 67 67 68 68 68 68 68 68 67 67 66 66 66 65 64 64 63
32 28 24 15 7 6 5 6 23 29 36 43 43 43 50 59 58 61 63 61 60 61 63 68 69 69 69 69 68 68 66 66 66 67 69 68 67 66 66 65 64 64 64 63 62 61 59 59 58
28 24 18 14 13 9 9 11 12 17 27 39 44 42 49 59 61 62 62 60 60 60 66 67 68 68 68 68 67 66 66 67 67 68 67 66 65 63 63 62 61 60 60 59 58 57 56 55 54
24 22 16 12 7 8 11 11 17 22 20 35 44 43 51 61 62 61 61 61 61 66 66 66 67 67 67 67 67 67 67 67 67 66 65 63 62 61 60 59 58 57 56 56 55 54 54 52 51
23 19 17 16 13 12 12 16 24 29 29 38 48 45 55 60 62 61 62 65 66 66 66 66 67 67 67 67 67 66 65 66 65 64 62 61 60 59 58 57 56 54 53 52 52 51 50 49 48
23 18 16 14 13 14 15 18 32 33 36 45 50 46 49 60 64 62 63 65 66 67 67 67 67 66 66 65 64 64 63 63 62 61 60 59 58 57 56 54 53 52 51 50 49 49 48 46 44
25 19 14 12 11 13 17 19 28 30 39 48 50 49 54 62 64 64 64 64 66 66 67 67 66 65 65 63 62 62 62 61 60 59 58 57 54 52 53 52 51 50 48 47 45 44 45 44 39
23 18 14 13 14 17 17 19 19 21 28 31 43 49 56 62 63 62 63 63 63 64 65 65 65 65 64 62 62 62 60 59 58 55 55 53 51 48 46 48 48 46 45 42 40 38 38 44 30
22 21 19 19 18 20 18 18 19 19 19 26 30 41 55 61 62 62 62 63 63 64 63 63 64 64 63 61 62 61 59 58 56 55 54 50 49 46 41 42 41 39 44 35 37 33 31 35 32
23 24 22 20 22 21 20 21 20 19 21 24 30 37 56 60 61 62 61 62 62 62 61 62 63 63 63 61 61 59 58 57 56 54 50 48 43 43 38 34 35 33 31 33 31 33 37 35 35
24 24 23 22 21 22 23 22 21 21 21 22 28 39 48 58 60 60 61 62 62 61 60 60 62 62 61 59 58 56 54 54 52 50 47 44 40 40 37 35 30 28 30 31 31 32 31 34 35
27 27 25 23 21 21 22 22 23 23 22 20 23 37 42 51 56 58 60 61 61 60 60 59 61 60 59 57 55 54 52 50 47 44 44 42 40 41 38 36 32 31 29 30 30 29 30 31 35
30 28 27 23 21 20 20 19 20 22 23 21 21 32 40 48 51 55 59 60 61 61 60 60 59 57 56 54 53 51 48 46 43 42 45 43 40 41 36 34 32 31 35 37 35 33 31 30 32
29 29 26 25 22 21 21 19 18 20 23 23 22 26 34 42 49 53 57 59 59 59 60 59 57 55 53 50 49 45 44 42 41 43 43 43 41 40 37 34 32 33 33 32 32 30 29 30 30
26 24 22 22 23 20 21 21 22 26 27 26 25 26 27 37 45 50 56 58 58 58 58 58 57 54 51 48 44 42 43 40 40 41 41 43 42 39 35 33 35 35 32 32 31 32 31 30 30
24 22 22 22 25 23 22 24 24 25 27 28 29 29 28 32 41 48 53 57 57 58 57 58 57 54 51 48 44 41 42 40 39 39 39 42 40 39 35 34 36 33 32 32 31 32 31 30 28
28 26 24 24 25 24 23 24 25 27 27 27 27 28 30 30 35 45 52 57 57 58 57 57 56 54 51 47 43 41 40 38 38 38 39 40 39 38 36 34 36 32 31 33 37 34 32 31 32
28 28 27 29 28 28 27 26 26 26 27 27 28 28 29 30 31 39 50 55 56 56 57 56 56 54 51 48 44 42 39 38 37 37 40 39 39 38 36 34 34 33 35 36 35 32 30 29 31
29 29 28 29 29 29 27 26 26 27 27 28 29 29 29 30 30 33 45 53 54 55 57 55 55 54 52 48 45 42 39 38 37 38 39 38 38 38 34 35 33 34 34 35 36 35 31 27 28
28 30 30 29 28 26 26 23 24 24 26 28 28 28 29 29 30 30 38 48 52 54 57 55 54 54 52 49 45 42 39 37 37 38 38 38 38 37 36 35 36 36 34 35 34 32 32 28 26
30 30 29 29 29 29 28 26 26 27 26 26 28 31 33 34 34 35 33 44 49 52 54 56 53 52 51 50 46 44 42 40 38 37 38 37 37 37 36 36 36 35 34 34 31 34 29 29 26
34 33 32 31 31 31 30 28 27 25 26 28 29 31 31 32 34 36 38 40 48 49 52 55 54 51 50 48 47 45 44 41 38 38 38 37 37 36 35 35 36 36 34 34 32 31 29 26 25
34 34 32 31 30 28 27 27 30 27 28 27 28 29 30 31 32 34 37 39 44 46 49 53 53 52 50 49 48 45 45 42 39 38 38 36 36 35 35 35 35 34 33 31 30 29 29 28 26
31 35 34 27 24 26 33 26 29 28 26 26 27 27 28 29 30 32 35 38 40 42 47 50 50 51 50 49 48 46 45 42 39 39 38 36 35 35 36 35 35 33 32 30 29 28 26 27 27
28 26 33 34 35 31 30 33 31 27 24 23 23 25 24 25 27 30 33 37 38 40 43 47 47 47 49 48 47 45 44 42 40 40 39 37 36 34 36 35 34 33 31 29 28 26 24 25 25
32 33 30 32 25 21 21 21 24 31 31 26 25 23 22 23 23 26 31 35 38 39 40 43 45 45 46 46 46 45 44 43 41 40 38 37 36 35 36 35 34 32 30 28 26 25 24 23 23
24 29 31 31 28 23 21 21 34 34 33 30 28 25 22 19 19 18 26 34 36 38 39 40 42 43 43 44 45 44 44 43 41 39 38 36 36 35 35 34 32 31 29 27 25 22 22 21 20
21 26 31 25 24 26 24 23 36 31 28 29 25 21 19 19 20 18 21 30 35 37 38 38 40 41 42 43 44 44 43 42 40 39 38 37 36 35 33 32 31 29 28 26 24 21 20 19 19
Wind_Speed
10 13 14 10 10 11 20 21 5 9 12 6 9 9 10 12 8 3 13 11 23 26 26 25 23 21 19 17 14 14 15 14 12 12 12 11 10 10 12 12 11 10 10 11 12 11 10 10 9
14 6 11 13 12 20 18 11 5 11 9 6 6 9 6 3 13 13 13 15 23 26 25 24 23 22 21 19 17 16 16 15 14 14 13 11 10 10 10 12 12 13 13 13 12 12 11 11 10
13 10 13 18 21 23 18 6 1 2 4 5 5 6 9 3 12 17 14 22 23 25 24 24 23 22 21 21 19 18 18 16 15 15 16 14 13 14 13 16 16 15 14 14 13 12 13 12 11
8 12 11 15 23 19 10 12 5 8 6 8 8 5 4 9 12 11 22 24 23 24 24 26 22 22 22 21 20 20 18 17 14 15 17 14 14 14 14 15 14 15 15 14 14 14 13 13 12
12 11 17 23 22 20 7 11 11 13 11 6 11 9 5 6 7 17 22 23 23 22 25 24 22 23 21 21 19 16 15 16 18 19 18 16 15 15 15 15 15 15 14 14 14 14 13 12 12
16 11 17 20 21 12 4 12 9 15 15 10 11 12 5 13 12 20 23 21 19 21 23 22 21 20 19 18 17 17 17 16 18 19 19 16 16 15 15 15 15 14 14 14 13 13 12 12 11
15 17 20 22 22 18 14 2 11 12 12 10 5 13 6 14 16 21 22 17 14 18 19 21 20 19 19 19 18 19 18 19 19 20 18 16 16 16 15 14 14 13 13 13 13 12 12 11 11
17 18 24 21 19 17 3 5 6 12 10 7 10 9 13 21 20 15 19 18 16 18 19 21 20 19 18 17 18 20 19 21 20 19 19 18 16 16 15 15 13 13 12 12 11 11 11 11 11
15 20 22 22 20 14 3 9 9 7 11 7 9 12 7 27 26 21 20 19 16 17 17 20 19 18 17 17 18 21 21 21 21 19 20 21 14 12 11 13 11 12 12 11 10 8 8 8 10
15 21 24 17 17 18 14 12 14 11 14 14 13 6 6 22 27 28 27 22 21 19 19 17 17 17 19 19 20 19 19 17 16 15 16 10 11 10 11 11 11 11 12 11 9 6 8 11 3
21 24 23 21 21 16 20 19 17 19 18 19 17 19 16 21 25 27 27 23 22 18 18 18 18 17 18 18 18 17 16 16 15 15 12 10 9 11 12 10 10 9 12 8 8 5 5 5 4
17 21 24 24 19 22 21 20 24 24 21 20 5 11 23 23 26 27 28 24 25 23 21 21 20 18 17 17 19 17 16 15 14 14 12 12 10 10 8 8 6 5 4 4 4 6 5 5 5
19 23 26 24 23 22 23 25 26 27 27 23 13 9 20 24 28 27 26 25 25 24 22 23 21 18 17 18 17 16 16 16 15 15 14 12 10 10 8 6 6 5 6 5 4 5 5 5 5
25 28 28 25 27 26 26 28 26 31 27 27 23 14 18 24 27 26 28 28 28 25 24 22 23 23 21 19 17 16 15 16 15 15 14 11 10 10 9 8 7 7 6 5 4 4 5 5 6
23 27 29 29 28 29 28 33 32 31 29 26 23 20 20 21 23 27 27 29 30 27 27 27 25 24 22 20 18 16 17 16 16 15 14 13 11 11 10 9 8 7 7 7 7 5 4 6 5
30 28 32 29 28 29 17 27 23 21 25 28 27 24 23 22 24 25 25 28 30 26 28 26 25 25 24 21 19 17 16 17 15 14 15 15 12 12 10 9 8 8 8 7 7 6 5 5 5
28 35 32 30 25 18 22 26 19 8 12 17 19 22 25 21 22 24 28 29 31 30 28 28 26 27 25 22 19 17 18 16 15 15 15 16 15 13 11 10 9 10 8 8 7 5 5 6 6
26 26 30 26 20 26 18 24 21 23 14 19 22 22 24 22 23 24 26 27 29 27 28 26 24 26 26 20 18 17 17 16 16 15 15 16 15 14 12 10 10 10 9 8 8 7 5 5 6
31 33 33 29 20 25 28 29 21 25 27 25 26 23 24 24 20 23 24 27 27 24 29 29 28 27 25 24 24 22 21 19 17 16 17 17 15 14 13 12 11 10 10 9 9 9 9 7 6
30 33 33 31 26 28 29 33 30 30 26 27 26 29 26 26 23 22 24 24 27 28 29 29 28 28 28 24 22 21 20 19 17 16 17 17 16 15 13 12 12 11 10 10 9 9 8 7 5
32 32 32 31 26 28 29 39 33 34 38 34 31 29 28 25 26 24 26 27 28 31 30 27 28 29 29 26 22 20 18 17 19 18 18 17 17 16 13 13 11 11 11 11 10 9 10 7 5
36 25 27 29 25 26 20 38 29 20 9 10 16 20 21 24 24 24 23 27 27 29 25 27 27 25 27 27 26 27 24 24 20 19 18 18 18 16 15 13 12 12 10 10 9 7 6 8 8
42 22 27 24 26 24 32 22 30 24 30 27 13 9 13 15 16 17 21 27 25 24 22 25 26 26 24 23 22 23 23 20 21 20 20 19 18 16 15 14 14 12 10 9 8 7 6 4 6
23 24 26 25 18 19 38 25 42 28 15 7 13 12 12 13 15 13 16 7 22 20 24 23 25 27 27 25 21 24 23 23 21 20 20 19 18 17 16 15 13 12 10 10 9 7 7 6 6
16 18 8 11 19 29 24 21 32 9 15 16 14 15 15 14 14 13 6 9 12 18 20 21 23 25 27 28 25 23 23 23 23 25 22 21 19 19 18 17 15 12 11 10 9 8 8 7 7
15 8 9 12 22 25 10 11 9 14 14 16 15 14 13 13 15 16 13 2 4 6 19 21 22 23 24 26 25 22 23 22 21 23 20 21 20 19 20 17 15 14 13 11 9 8 7 7 5
7 25 15 11 14 16 12 12 5 7 11 13 13 11 13 13 12 13 13 10 1 5 9 13 18 21 23 25 24 24 24 23 22 23 21 20 19 19 21 19 17 15 14 13 11 9 7 7 5
5 12 4 7 10 29 22 24 19 12 15 10 14 16 15 13 11 9 8 8 6 3 6 12 17 20 22 22 23 21 21 22 19 20 22 21 20 21 21 20 19 17 15 14 11 10 9 8 6
3 3 1 4 2 7 9 7 21 21 13 18 19 21 20 17 17 13 7 4 4 4 5 7 12 17 20 23 22 22 21 21 17 20 21 21 20 22 22 21 20 18 16 13 11 9 9 8 7
11 7 6 6 2 2 6 4 9 6 16 16 22 23 20 20 21 17 13 4 4 5 6 8 9 12 14 16 20 22 21 22 20 20 22 21 23 24 24 22 22 20 17 15 12 12 10 7 6
Wind_Direction
254 224 240 243 239 233 255 241 234 286 263 265 351 278 270 259 185 218 135 134 141 138 147 154 147 150 149 151 152 144 138 139 143 135 128 118 113 107 105 103 101 106 105 102 92 83 77 73 63
257 242 243 268 251 247 255 202 185 244 56 28 302 265 279 224 84 122 128 153 144 143 150 153 148 152 151 154 155 150 149 151 154 146 133 130 123 116 106 97 91 92 88 85 83 83 82 74 65
254 245 265 241 242 258 276 83 310 2 319 247 221 285 253 61 97 144 138 149 154 145 159 148 151 152 155 156 159 158 155 161 160 157 139 141 129 110 104 93 92 95 92 86 84 85 78 75 63
234 224 241 253 261 262 266 299 195 253 232 228 224 226 79 21 136 134 151 157 155 154 152 146 153 155 159 160 163 164 160 162 162 144 131 132 120 115 105 98 95 95 96 96 92 85 77 69 60
244 266 262 260 260 270 293 278 287 273 245 247 225 211 134 125 97 138 160 160 158 160 133 153 159 161 157 150 150 147 149 141 130 123 118 118 117 114 108 106 103 101 99 95 88 83 79 73 61
264 245 270 264 263 251 257 270 281 273 261 218 222 239 130 131 161 156 166 161 156 130 143 155 155 155 147 143 143 138 132 126 118 114 115 124 121 117 113 111 109 104 101 96 92 86 80 72 63
255 274 264 275 279 285 270 202 263 265 249 214 220 220 113 160 165 158 160 141 136 137 149 155 156 148 134 132 133 130 128 122 118 119 120 123 118 116 112 107 102 98 97 96 95 90 83 74 66
269 271 276 275 284 278 327 256 236 269 270 143 191 227 199 167 169 162 139 147 152 158 157 162 155 155 149 140 131 128 125 122 121 123 125 121 114 116 118 114 103 104 102 102 101 98 91 86 74
264 270 261 263 267 270 252 250 229 291 287 205 196 265 48 151 163 165 158 159 159 157 158 161 159 157 150 144 138 129 128 126 128 134 141 150 142 142 133 89 109 109 105 102 102 110 117 119 99
241 260 263 286 307 303 289 248 266 247 242 251 219 205 153 163 170 178 180 171 175 164 160 160 160 158 161 159 160 153 149 155 160 158 168 183 144 127 119 116 120 121 125 124 128 148 186 198 153
254 255 274 298 306 282 274 271 268 262 252 255 241 209 174 177 184 187 191 181 176 164 163 168 167 166 178 156 172 166 170 169 163 168 173 148 139 139 150 151 164 157 188 163 178 159 75 53 28
259 267 278 275 275 279 265 269 266 266 261 270 269 317 165 190 197 199 195 187 184 178 173 173 174 175 194 164 177 171 173 169 167 168 167 161 172 176 175 168 147 173 128 135 128 99 92 95 88
270 271 269 270 273 271 272 267 267 269 268 270 255 237 198 201 201 204 199 194 189 181 179 179 177 179 188 182 184 179 174 173 169 158 173 178 170 170 177 159 167 139 145 135 127 124 125 117 95
278 281 280 277 276 269 266 264 259 257 259 260 256 228 225 214 209 206 198 199 190 186 181 181 184 183 185 189 179 179 172 170 163 168 167 177 174 169 160 167 159 149 140 124 135 140 139 104 104
274 271 275 268 265 262 257 255 253 256 256 250 241 233 230 223 217 211 199 203 198 183 179 186 185 183 184 188 181 179 178 165 171 167 162 169 171 172 167 164 168 147 126 131 139 154 140 130 118
269 266 271 270 264 261 264 265 264 261 236 239 246 235 227 221 218 213 203 205 205 180 175 181 185 185 185 178 180 181 169 177 168 159 168 165 166 170 175 168 163 154 161 156 154 160 151 148 145
257 259 265 274 280 253 241 257 257 286 267 262 256 243 235 221 220 214 200 208 205 189 180 179 187 185 184 178 179 176 170 174 167 169 168 166 166 171 175 169 154 175 162 157 155 158 168 156 150
253 253 250 254 263 279 259 267 259 260 230 244 248 249 248 225 218 219 207 205 210 191 184 178 185 187 184 174 175 173 175 174 171 173 170 169 167 173 172 162 164 177 162 162 161 151 162 160 150
265 273 276 280 277 282 280 271 263 260 267 250 254 248 248 241 222 210 216 195 211 199 176 180 188 187 185 179 179 178 182 176 175 175 165 176 167 172 173 164 169 180 172 155 159 150 152 147 157
265 264 264 271 274 276 279 276 274 262 256 253 252 254 243 247 232 211 200 207 205 198 181 184 190 188 193 188 185 182 181 178 178 173 172 178 170 172 175 170 172 178 156 163 173 167 153 141 183
259 260 272 272 281 278 283 276 268 263 255 246 250 249 255 248 244 230 192 202 207 207 186 191 191 189 195 192 185 180 178 174 179 177 179 178 173 177 178 178 171 171 170 168 170 180 181 161 153
268 262 263 270 269 268 264 277 273 271 279 238 249 256 258 250 251 238 206 202 206 210 189 185 193 196 196 197 189 186 183 183 185 176 179 174 176 177 175 176 172 176 174 165 167 176 176 171 164
263 268 272 275 283 291 265 263 269 260 255 247 263 18 19 3 340 317 224 197 198 203 199 186 192 194 199 206 193 185 186 191 186 178 175 175 176 176 177 174 175 175 170 166 158 152 162 180 167
296 287 274 268 267 258 255 253 270 262 273 159 80 64 46 27 13 347 323 265 179 194 206 188 192 194 194 198 202 190 195 193 186 174 176 178 175 175 179 178 176 171 163 161 157 147 150 142 145
296 275 258 231 231 245 263 246 249 86 93 106 97 70 49 36 28 19 344 261 193 191 201 197 197 201 190 191 203 201 197 197 188 176 181 180 177 178 178 176 174 169 162 159 152 152 143 149 149
265 283 242 261 268 268 341 244 250 116 118 99 88 77 63 42 28 21 26 4 318 238 196 204 208 211 194 191 202 204 203 207 193 185 182 181 181 180 170 176 173 166 158 155 151 150 149 130 137
314 231 286 283 267 277 250 246 214 148 117 92 79 65 47 41 33 23 10 11 7 222 229 206 217 221 207 199 201 204 206 213 194 186 184 182 173 175 168 170 171 162 159 155 158 144 142 129 146
358 353 317 245 257 258 259 261 258 140 32 39 42 16 4 1 7 9 15 357 336 312 226 217 218 222 220 212 199 205 205 214 194 182 183 181 173 164 166 167 161 160 160 157 153 146 145 145 158
195 288 306 291 345 313 268 214 60 76 32 1 351 342 337 342 340 338 346 354 310 264 249 242 232 226 222 217 194 200 209 208 192 180 177 171 166 158 165 161 158 158 155 154 149 151 134 158 157
291 289 171 243 155 272 274 283 124 92 22 342 328 323 328 331 329 329 320 309 290 281 242 230 220 236 239 229 205 196 200 197 193 183 181 168 166 165 163 161 158 156 155 155 149 145 148 161 164